Regional Weather Roundup
Issued by NWS

Home | Current Version | Previous Version | Text Only | Print | Product List | Glossary Off
Versions: 1 2 3 4 5 6 7 8 9 10 11 12 13 14 15 16 17 18 19 20 21 22 23 24 25 26 27 28 29 30 31 32 33 34 35 36 37 38 39 40 41 42 43 44 45 46 47 48 49 50

407
ASUS43 KMKX 201410
RWRWI

WISCONSIN REGIONAL WEATHER ROUNDUP
NATIONAL WEATHER SERVICE MILWAUKEE/SULLIVAN WI
800 AM CST TUE FEB 20 2018

NOTE: "FAIR" INDICATES FEW OR NO CLOUDS BELOW 12,000 FEET WITH NO
SIGNIFICANT WEATHER AND/OR OBSTRUCTIONS TO VISIBILITY.

WIZ001-002-006>008-014>016-023>028-201500-
NORTHWEST WISCONSIN

CITY           SKY/WX    TMP DP  RH WIND       PRES   REMARKS
SUPERIOR ARPT  LGT SNOW  14   9  83 NE7       29.90S WCI   3
ASHLAND        LGT SNOW  21  19  92 NE8       29.84F FOG     WCI  11
HAYWARD        CLOUDY    19  16  88 NE3       29.81R
SIREN          CLOUDY    19  17  90 N3        29.86R
CUMBERLAND     CLOUDY    19  16  86 N3        29.82R
RICE LAKE      CLOUDY    19  17  90 N5        29.84R WCI  13
CHETEK         LGT SNOW  19  17  92 CALM      29.83R
LADYSMITH      CLOUDY    21  19  93 NW3       29.82R
EAU CLAIRE     CLOUDY    21  19  92 N6        29.82R WCI  13
MENOMONIE      CLOUDY    22  20  91 NW3       29.84R
NEW RICHMOND   CLOUDY    20  16  85 N3        29.85R
OSCEOLA        CLOUDY    20  18  89 CALM      29.88S
$$

WIZ003>005-009-010-017-018-201500-
NORTH CENTRAL WISCONSIN

CITY           SKY/WX    TMP DP  RH WIND       PRES   REMARKS
MANITOWISH WTR CLOUDY    19  19 100 CALM      29.76S FOG
ARBOR VITAE    CLOUDY    21  19  93 CALM      29.75R
WOODRUFF       CLOUDY    21  19  93 CALM      29.75R
RHINELANDER    CLOUDY    24  24 100 CALM      29.73F
EAGLE RIVER    CLOUDY    22  22 100 CALM      29.73F
LAND O LAKES   CLOUDY    22  21  96 CALM      29.76F FOG
PHILLIPS       CLOUDY    19  19 100 CALM      29.76F
TOMAHAWK       CLOUDY    23  22  95 CALM      29.76R
MEDFORD        CLOUDY    26  25  96 CALM      29.76R
MERRILL        CLOUDY    28  28 100 CALM      29.76R
$$

WIZ029-030-035-036-043>047-201500-
CENTRAL WISCONSIN

CITY           SKY/WX    TMP DP  RH WIND       PRES   REMARKS
WAUSAU         CLOUDY    28  28 100 S7        29.75F WCI  21
MOSINEE        CLOUDY    28  28 100 S5        29.78S WCI  23
MARSHFIELD     CLOUDY    29  28  96 S6        29.76R FOG     WCI  23
STEVENS POINT  CLOUDY    29  29 100 CALM      29.79R
WAUPACA        CLOUDY    33  32  95 CALM      29.81R FOG
WAUTOMA        CLOUDY    31  30  96 SW5       29.83R WCI  26
WISC RAPIDS    MIX PCPN  30  28  92 CALM      29.79F
CAMP DOUGLAS   CLOUDY    32  32 100 CALM      29.80R
$$

WIZ011>013-019>022-031-037>040-048>050-201500-
NORTHEAST WISCONSIN

CITY           SKY/WX    TMP DP  RH WIND       PRES   REMARKS
ANTIGO         CLOUDY    26  26 100 SE6       29.75F WCI  19
SHAWANO        CLOUDY    32  30  92 CALM      29.78S
OCONTO         CLOUDY    30  29  96 CALM      29.79R
STURGEON BAY   FLURRIES  29  29 100 E7        29.75F WCI  22
GREEN BAY      MIX PCPN  31  29  92 E6        29.78R WCI  25
MANITOWOC      CLOUDY    33  32  96 SE7       29.77F WCI  27
APPLETON       RAIN      30  30 100 E5        29.75F WCI  25
CLINTONVILLE   CLOUDY    32  30  94 CALM      29.80R
OSHKOSH        CLOUDY    31  31 100 SE3       29.79R
$$

WIZ032>034-041-042-053>061-201500-
SOUTHWEST WISCONSIN

CITY           SKY/WX    TMP DP  RH WIND       PRES   REMARKS
LA CROSSE      CLOUDY    32  30  92 CALM      29.80R
SPARTA         CLOUDY    31  30  99 CALM      29.81S
VIROQUA        CLOUDY    32  32 100 SE3       29.78F
BOSCOBEL       CLOUDY    35  34  96 CALM      29.83F FOG
PRAIRIE DU CHI CLOUDY    34  33  96 CALM      29.82R
PLATTEVILLE    CLOUDY    34  34 100 SW5       29.83R WCI  30
$$

WIZ056-057-062-063-064-067-068-201500-
SOUTH CENTRAL WISCONSIN

CITY           SKY/WX    TMP DP  RH WIND       PRES   REMARKS
REEDSBURG      CLOUDY    32  32 100 SE3       29.80S FOG
BARABOO/DELLS  MIX PCPN  32  31  99 CALM      29.81R
LONE ROCK      CLOUDY    34  34 100 CALM      29.82F FOG
MINERAL POINT  LGT RAIN  36  36 100 CALM      29.82R
MADISON        CLOUDY    34  34 100 CALM      29.84R
MIDDLETON      CLOUDY    36  36 100 CALM      29.83R
WATERTOWN      CLOUDY    34  34 100 S3        29.81R
MONROE         LGT RAIN  36  36 100 S5        29.82R WCI  32
JANESVILLE     RAIN      39  39 100 CALM      29.85R VSB 1
$$

WIZ051-052-058>065-066-070>072-201500-
SOUTHEAST WISCONSIN

CITY           SKY/WX    TMP DP  RH WIND       PRES   REMARKS
MILWAUKEE      CLOUDY    43  42  97 NW6       29.84R
WAUKESHA       LGT RAIN  36  36 100 E5        29.82F WCI  32
MILWAUKEE/TIMM DRIZZLE   39  36  87 CALM      29.84F
RACINE         CLOUDY    50  50 100 NW7       29.87R
BURLINGTON     LGT RAIN  40  39  97 SE3       29.83S
KENOSHA        CLOUDY    54  51  90 W12       29.85R
FOND DU LAC    PTSUNNY   33  30  88 S5        29.78S WCI  29
SHEBOYGAN      LGT RAIN  33  33 100 S7        29.80F WCI  27
WEST BEND      DRIZZLE   36  36 100 CALM      29.81R
JUNEAU         CLOUDY    32  32 100 CALM      29.81R FOG
$$

LSZ147-162-201500-
LAKE SUPERIOR

STATION/POSITION TIME  TEMP    WIND        PRES    WAVE
                       AIR SEA DIR/SP/G            HT/PER
                 (UTC) (F)     (DEG/KT/KT) (MB)    (FT/S)
DEVILS ISLAND    1400   19      40/ 21/ 25 1012.3F
SAXON HARBOR     1330   21      40/  3/  6 1011.2R
$$

LMZ867-665-643>646-201500-
LAKE MICHIGAN

STATION/POSITION TIME  TEMP    WIND        PRES    WAVE
                       AIR SEA DIR/SP/G            HT/PER
                 (UTC) (F)     (DEG/KT/KT) (MB)    (FT/S)
NORTHPORT PIER   1400   31                 1007.8
KEWAUNEE LAKESHO 1342   32      70/  3/  4 1008.3F
SHEBOYGAN LAKESH 1400   33     110/  2/  3 1009.9F
PORT WASHINGTON  1330   38     150/  5/  7 1010.8F
MILWAUKEE LAKESH 1350   37      20/  5/  5   N/A
KENOSHA   LAKESH 1400   56     270/  5/ 10 1011.2
$$

TC  - TEMPERATURE IN CELSIUS
VSB - VISIBILITY IN STATUTE MILES
WCI - WIND CHILL INDEX
HX  - HEAT INDEX





USA.gov is the U.S. government's official web portal to all federal, state and local government web resources and services.